Austin Bergstrom, TX

5:21 PM CDT on May 20, 2018 (GMT -0500)
Austin Bergstrom International

Weather History for KAUS - December, 2012

Change the Weather History Date:

Friday, December 21, 2012

  Actual Average Record
Temperature  
Mean Temperature 42 °F 50 °F  
Max Temperature 61 °F 63 °F 81 °F (1970)
Min Temperature 22 °F 36 °F 22 °F (2012)
Degree Days  
Heating Degree Days 23 16  
Month to date heating degree days 168 302  
Since 1 July heating degree days 422 587  
Cooling Degree Days 0 0  
Month to date cooling degree days 44 5  
Year to date cooling degree days 3170 2746  
Moisture  
Dew Point 13 °F    
Average Humidity 46    
Maximum Humidity 81    
Minimum Humidity 11    
Precipitation  
Precipitation 0.00 in 0.07 in 3.05 in (1991)
Month to date precipitation 0.46 1.47  
Year to date precipitation 34.76 33.90  
Snow  
Snow 0.00 in - - ()
Month to date snowfall 0.0  
Since 1 July snowfall 0.0  
Snow Depth 0.00 in    
Sea Level Pressure  
Sea Level Pressure 30.46 in    
Wind  
Wind Speed 4 mph (SSW)    
Max Wind Speed 13 mph    
Max Gust Speed 16 mph    
Visibility 10 miles    
Events      
T = Trace of Precipitation, MM = Missing Value Source: NWS Daily Summary

Daily Weather History Graph

Daily Weather History Graph

Search for Another Location

Airport or City:

Astronomy

Dec. 21, 2012 Rise Set
Actual Time 7:23 AM CST 5:35 PM CST
Civil Twilight 6:56 AM CST 6:01 PM CST
Nautical Twilight 6:26 AM CST 6:31 PM CST
Astronomical Twilight 5:57 AM CST 7:00 PM CST
Moon 1:07 PM CST (12/21) 1:28 AM CST (12/21)
Length of Visible Light 11h 04m
Length of Day
10h 12m
Waxing Gibbous, 65% of the Moon is Illuminated
Dec 21
Waxing Gibbous
Dec 28
Full
Jan 4
Last Quarter
Jan 11
New
Jan 18
First Quarter

Hourly Weather History & Observations

Time (CST) Temp. Windchill Dew Point Humidity Pressure Visibility Wind Dir Wind Speed Gust Speed Precip Events Conditions
12:53 AM 26.1 °F 21.9 °F 14.0 °F 60% 30.51 in 10.0 mi West 3.5 mph - N/A   Clear
1:53 AM 27.0 °F 21.6 °F 16.0 °F 63% 30.50 in 10.0 mi West 4.6 mph - N/A   Clear
2:53 AM 28.9 °F 25.2 °F 10.9 °F 47% 30.50 in 10.0 mi West 3.5 mph - N/A   Clear
3:53 AM 25.0 °F - 15.1 °F 66% 30.50 in 10.0 mi Calm Calm - N/A   Clear
4:53 AM 24.1 °F - 17.1 °F 75% 30.50 in 10.0 mi Calm Calm - N/A   Partly Cloudy
5:53 AM 23.0 °F - 17.1 °F 78% 30.51 in 10.0 mi Calm Calm - N/A   Partly Cloudy
6:53 AM 28.9 °F 25.2 °F 17.1 °F 61% 30.51 in 10.0 mi West 3.5 mph - N/A   Mostly Cloudy
7:53 AM 26.1 °F - 17.1 °F 69% 30.53 in 10.0 mi Calm Calm - N/A   Mostly Cloudy
8:53 AM 37.0 °F 34.5 °F 16.0 °F 42% 30.54 in 10.0 mi West 3.5 mph - N/A   Mostly Cloudy
9:53 AM 48.0 °F - 12.0 °F 24% 30.54 in 10.0 mi NNW 4.6 mph - N/A   Mostly Cloudy
10:53 AM 52.0 °F - 9.0 °F 18% 30.53 in 10.0 mi Calm Calm - N/A   Mostly Cloudy
11:53 AM 57.0 °F - 7.0 °F 14% 30.50 in 10.0 mi Calm Calm - N/A   Mostly Cloudy
12:53 PM 57.9 °F - 7.0 °F 13% 30.46 in 10.0 mi South 6.9 mph - N/A   Mostly Cloudy
1:53 PM 57.9 °F - 6.1 °F 13% 30.42 in 10.0 mi South 9.2 mph - N/A   Mostly Cloudy
2:53 PM 61.0 °F - 8.1 °F 12% 30.40 in 10.0 mi SSW 9.2 mph - N/A   Scattered Clouds
3:53 PM 60.1 °F - 7.0 °F 12% 30.38 in 10.0 mi SSE 8.1 mph - N/A   Scattered Clouds
4:53 PM 55.9 °F - 9.0 °F 15% 30.38 in 10.0 mi South 6.9 mph - N/A   Mostly Cloudy
5:53 PM 48.9 °F - 12.0 °F 23% 30.39 in 10.0 mi SSE 3.5 mph - N/A   Mostly Cloudy
6:53 PM 44.1 °F - 16.0 °F 32% 30.40 in 10.0 mi Calm Calm - N/A   Mostly Cloudy
7:53 PM 39.9 °F 33.4 °F 17.1 °F 40% 30.41 in 10.0 mi SSE 10.4 mph - N/A   Scattered Clouds
8:53 PM 37.0 °F 33.3 °F 19.0 °F 48% 30.40 in 10.0 mi South 4.6 mph - N/A   Scattered Clouds
9:53 PM 41.0 °F 33.9 °F 18.0 °F 40% 30.39 in 10.0 mi South 12.7 mph - N/A   Clear
10:53 PM 35.1 °F 28.6 °F 19.0 °F 52% 30.40 in 10.0 mi South 8.1 mph - N/A   Scattered Clouds
11:53 PM 37.9 °F 34.4 °F 16.0 °F 41% 30.39 in 10.0 mi SSW 4.6 mph - N/A   Clear